| time (UTC) | temp F | wind direction | speed knots | gust knots | rain 1hr in | rain 24hr in | rain mn in | humidity % | barometer mb |
| 20260507040835 | 59 | 76 | 1.7 | 3.5 | 0.00 | 0.13 | 0.00 | 84 | 1011.9 |
| 20260507035936 | 59 | 79 | 0.9 | 2.6 | 0.00 | 0.14 | 0.00 | 84 | 1012.0 |
| 20260507035357 | 59 | 66 | 2.6 | 4.3 | 0.00 | 0.15 | 0.00 | 84 | 1011.9 |
| 20260507034435 | 59 | 41 | 0.0 | 0.9 | 0.00 | 0.16 | 0.00 | 83 | 1012.0 |
| 20260507033535 | 59 | 23 | 4.3 | 7.8 | 0.00 | 0.16 | 0.00 | 83 | 1012.0 |
| 20260507032656 | 59 | 106 | 1.7 | 4.3 | 0.00 | 0.16 | 0.00 | 83 | 1011.9 |
| 20260507031735 | 59 | 84 | 2.6 | 5.2 | 0.00 | 0.16 | 0.00 | 83 | 1011.9 |
| 20260507030835 | 59 | 48 | 0.9 | 1.7 | 0.00 | 0.16 | 0.00 | 83 | 1012.0 |
| 20260507025934 | 59 | 93 | 1.7 | 3.5 | 0.00 | 0.16 | 0.00 | 83 | 1011.9 |
| 20260507025334 | 59 | 69 | 1.7 | 4.3 | 0.00 | 0.16 | 0.00 | 83 | 1011.9 |
| 20260507024435 | 59 | 140 | 1.7 | 2.6 | 0.00 | 0.17 | 0.00 | 83 | 1011.8 |
| 20260507023535 | 59 | 92 | 1.7 | 3.5 | 0.00 | 0.17 | 0.00 | 83 | 1011.9 |
| 20260507022634 | 59 | 151 | 2.6 | 3.5 | 0.00 | 0.17 | 0.00 | 83 | 1011.8 |
| 20260507021735 | 59 | 78 | 2.6 | 5.2 | 0.00 | 0.19 | 0.00 | 83 | 1011.8 |
| 20260507020842 | 59 | 110 | 1.7 | 2.6 | 0.00 | 0.21 | 0.00 | 83 | 1011.8 |
| 20260507015935 | 59 | 102 | 2.6 | 4.3 | 0.00 | 0.23 | 0.00 | 83 | 1011.8 |
| 20260507015356 | 59 | 80 | 0.0 | 0.9 | 0.00 | 0.25 | 0.00 | 83 | 1011.8 |
| 20260507014455 | 59 | 74 | 0.9 | 2.6 | 0.00 | 0.29 | 0.00 | 83 | 1011.7 |
| 20260507013535 | 59 | 118 | 0.9 | 2.6 | 0.00 | 0.33 | 0.00 | 83 | 1011.7 |
| 20260507012635 | 59 | 102 | 0.9 | 2.6 | 0.00 | 0.39 | 0.00 | 83 | 1011.8 |
| 20260507011735 | 60 | 54 | 0.9 | 2.6 | 0.00 | 0.44 | 0.00 | 83 | 1011.9 |
| 20260507010834 | 60 | 32 | 0.9 | 1.7 | 0.00 | 0.57 | 0.00 | 83 | 1011.9 |
| 20260507005934 | 59 | 297 | 2.6 | 5.2 | 0.00 | 0.57 | 0.00 | 83 | 1011.9 |
| 20260507005335 | 59 | 4 | 0.9 | 1.7 | 0.00 | 0.58 | 0.00 | 83 | 1012.0 |
| 20260507004435 | 60 | 316 | 1.7 | 3.5 | 0.00 | 0.59 | 0.00 | 84 | 1012.0 |
| 20260507003535 | 60 | 49 | 1.7 | 3.5 | 0.00 | 0.60 | 0.00 | 83 | 1011.9 |
| 20260507002635 | 59 | 115 | 1.7 | 3.5 | 0.00 | 0.60 | 0.00 | 83 | 1011.9 |
| 20260507001756 | 59 | 78 | 3.5 | 6.1 | 0.00 | 0.61 | 0.00 | 83 | 1011.9 |
| 20260507000856 | 60 | 14 | 0.0 | 2.6 | 0.00 | 0.61 | 0.00 | 83 | 1011.7 |
| 20260506235934 | 60 | 18 | 4.3 | 7.0 | 0.00 | 0.61 | 0.00 | 83 | 1011.7 |
| 20260506235334 | 60 | 1 | 2.6 | 3.5 | 0.00 | 0.61 | 0.00 | 83 | 1011.9 |
| 20260506234457 | 60 | 345 | 1.7 | 3.5 | 0.00 | 0.61 | 0.00 | 82 | 1011.9 |
| 20260506233556 | 60 | 27 | 0.9 | 2.6 | 0.00 | 0.61 | 0.00 | 82 | 1012.0 |
| 20260506232635 | 60 | 48 | 2.6 | 5.2 | 0.00 | 0.61 | 0.00 | 81 | 1012.0 |
| 20260506231756 | 60 | 46 | 2.6 | 4.3 | 0.00 | 0.61 | 0.00 | 81 | 1011.9 |
| 20260506230857 | 60 | 33 | 2.6 | 2.6 | 0.00 | 0.61 | 0.00 | 81 | 1012.0 |
| 20260506225936 | 60 | 86 | 0.0 | 1.7 | 0.00 | 0.61 | 0.00 | 81 | 1012.0 |
| 20260506225355 | 60 | 46 | 1.7 | 6.1 | 0.00 | 0.61 | 0.00 | 81 | 1012.0 |
| 20260506224434 | 60 | 327 | 0.0 | 1.7 | 0.00 | 0.61 | 0.00 | 82 | 1012.0 |
| 20260506223556 | 60 | 45 | 1.7 | 2.6 | 0.00 | 0.61 | 0.00 | 82 | 1012.0 |
| 20260506222656 | 60 | 9 | 2.6 | 6.1 | 0.00 | 0.61 | 0.00 | 82 | 1012.0 |
| 20260506221735 | 60 | 179 | 1.7 | 4.3 | 0.00 | 0.65 | 0.00 | 82 | 1012.0 |
| 20260506220834 | 60 | 100 | 2.6 | 4.3 | 0.00 | 0.72 | 0.00 | 82 | 1012.0 |
| 20260506215956 | 60 | 218 | 0.0 | 0.9 | 0.00 | 0.72 | 0.00 | 82 | 1012.0 |
| 20260506215335 | 60 | 44 | 1.7 | 6.1 | 0.00 | 0.72 | 0.72 | 83 | 1012.0 |
| 20260506214435 | 60 | 323 | 0.9 | 1.7 | 0.00 | 0.72 | 0.72 | 83 | 1012.0 |
| 20260506213535 | 60 | 357 | 0.9 | 1.7 | 0.00 | 0.72 | 0.72 | 82 | 1012.0 |
| 20260506212650 | 60 | 2 | 0.0 | 1.7 | 0.00 | 0.72 | 0.72 | 82 | 1012.0 |
| 20260506211734 | 60 | 14 | 4.3 | 7.8 | 0.00 | 0.72 | 0.72 | 84 | 1012.0 |
| 20260506210834 | 60 | 83 | 0.9 | 3.5 | 0.00 | 0.72 | 0.72 | 83 | 1011.9 |
| 20260506205934 | 60 | 20 | 0.9 | 2.6 | 0.00 | 0.72 | 0.72 | 83 | 1011.9 |
| 20260506205334 | 60 | 98 | 3.5 | 5.2 | 0.00 | 0.72 | 0.72 | 83 | 1012.0 |
| 20260506204435 | 60 | 84 | 1.7 | 3.5 | 0.00 | 0.72 | 0.72 | 83 | 1011.9 |
| 20260506203535 | 60 | 87 | 0.9 | 2.6 | 0.00 | 0.72 | 0.72 | 82 | 1011.8 |
| 20260506202635 | 60 | 334 | 1.7 | 2.6 | 0.00 | 0.72 | 0.72 | 83 | 1011.7 |
| 20260506201735 | 60 | 336 | 0.9 | 2.6 | 0.00 | 0.72 | 0.72 | 82 | 1011.8 |
| 20260506200835 | 60 | 127 | 0.0 | 0.9 | 0.00 | 0.72 | 0.72 | 82 | 1011.6 |
| 20260506195935 | 60 | 75 | 2.6 | 4.3 | 0.00 | 0.72 | 0.72 | 82 | 1011.5 |
| 20260506195350 | 60 | 131 | 3.5 | 5.2 | 0.00 | 0.72 | 0.72 | 82 | 1011.5 |
| 20260506194435 | 60 | 67 | 0.0 | 1.7 | 0.00 | 0.72 | 0.72 | 82 | 1011.3 |
| 20260506193542 | 60 | 170 | 3.5 | 6.1 | 0.00 | 0.72 | 0.72 | 83 | 1011.3 |
| 20260506192717 | 60 | 144 | 1.7 | 4.3 | 0.00 | 0.72 | 0.72 | 83 | 1011.2 |
| 20260506191757 | 60 | 44 | 0.9 | 2.6 | 0.00 | 0.72 | 0.72 | 83 | 1011.1 |
| 20260506190836 | 60 | 107 | 0.0 | 0.9 | 0.00 | 0.72 | 0.72 | 83 | 1010.9 |
| 20260506185935 | 60 | 61 | 0.9 | 2.6 | 0.00 | 0.72 | 0.72 | 84 | 1010.8 |
| 20260506185335 | 60 | 266 | 1.7 | 3.5 | 0.00 | 0.72 | 0.72 | 84 | 1010.7 |
| 20260506184436 | 60 | 5 | 1.7 | 4.3 | 0.00 | 0.72 | 0.72 | 84 | 1010.7 |
| 20260506183535 | 60 | 16 | 1.7 | 3.5 | 0.00 | 0.72 | 0.72 | 85 | 1010.5 |
| 20260506182637 | 60 | 297 | 0.9 | 1.7 | 0.00 | 0.72 | 0.72 | 86 | 1010.5 |
| 20260506181735 | 60 | 22 | 2.6 | 5.2 | 0.00 | 0.72 | 0.72 | 85 | 1010.3 |
| 20260506180834 | 60 | 160 | 1.7 | 4.3 | 0.00 | 0.72 | 0.72 | 85 | 1010.2 |
| 20260506175935 | 60 | 48 | 4.3 | 7.8 | 0.00 | 0.72 | 0.72 | 85 | 1010.0 |
| 20260506175335 | 60 | 110 | 4.3 | 7.0 | 0.00 | 0.72 | 0.72 | 85 | 1010.0 |
| 20260506174435 | 61 | 348 | 2.6 | 6.1 | 0.00 | 0.72 | 0.72 | 85 | 1010.0 |
| 20260506173534 | 61 | 41 | 2.6 | 4.3 | 0.00 | 0.72 | 0.72 | 84 | 1009.9 |
| 20260506172635 | 61 | 315 | 3.5 | 5.2 | 0.00 | 0.72 | 0.72 | 83 | 1009.8 |
| 20260506171734 | 61 | 16 | 6.1 | 7.8 | 0.00 | 0.72 | 0.72 | 83 | 1009.8 |
| 20260506170834 | 62 | 29 | 3.5 | 7.0 | 0.00 | 0.72 | 0.72 | 82 | 1009.8 |
| 20260506165956 | 62 | 352 | 0.9 | 2.6 | 0.00 | 0.72 | 0.72 | 82 | 1009.7 |
| 20260506165335 | 63 | 87 | 0.9 | 1.7 | 0.00 | 0.72 | 0.72 | 81 | 1009.6 |
| 20260506164435 | 63 | 257 | 0.9 | 2.6 | 0.00 | 0.72 | 0.72 | 82 | 1009.7 |
| 20260506163535 | 62 | 347 | 1.7 | 3.5 | 0.00 | 0.72 | 0.72 | 83 | 1009.8 |
| 20260506162634 | 62 | 24 | 0.0 | 0.9 | 0.00 | 0.72 | 0.72 | 82 | 1009.8 |
| 20260506161735 | 63 | 60 | 3.5 | 6.1 | 0.00 | 0.72 | 0.72 | 82 | 1009.7 |
| 20260506160835 | 63 | 338 | 2.6 | 5.2 | 0.00 | 0.72 | 0.72 | 83 | 1009.7 |
| 20260506155934 | 63 | 354 | 0.9 | 2.6 | 0.00 | 0.72 | 0.72 | 82 | 1009.7 |
| 20260506155334 | 63 | 34 | 0.9 | 3.5 | 0.00 | 0.72 | 0.72 | 82 | 1009.6 |
| 20260506154435 | 64 | 270 | 0.9 | 1.7 | 0.00 | 0.72 | 0.72 | 81 | 1009.7 |
| 20260506153549 | 64 | 191 | 3.5 | 6.1 | 0.00 | 0.72 | 0.72 | 81 | 1009.7 |
| 20260506152635 | 65 | 169 | 4.3 | 6.1 | 0.00 | 0.72 | 0.72 | 80 | 1009.6 |
| 20260506151734 | 66 | 234 | 2.6 | 6.1 | 0.00 | 0.72 | 0.72 | 80 | 1009.6 |
| 20260506150834 | 65 | 225 | 4.3 | 7.8 | 0.00 | 0.72 | 0.72 | 81 | 1009.6 |
| 20260506145936 | 66 | 254 | 1.7 | 4.3 | 0.00 | 0.72 | 0.72 | 79 | 1009.6 |
| 20260506145335 | 66 | 245 | 5.2 | 7.8 | 0.00 | 0.72 | 0.72 | 79 | 1009.4 |
| 20260506144456 | 66 | 24 | 2.6 | 6.1 | 0.00 | 0.72 | 0.72 | 80 | 1009.5 |
| 20260506143534 | 64 | 150 | 1.7 | 4.3 | 0.00 | 0.72 | 0.72 | 82 | 1009.5 |
| 20260506142634 | 64 | 52 | 2.6 | 7.0 | 0.00 | 0.72 | 0.72 | 80 | 1009.5 |
| 20260506141737 | 65 | 224 | 2.6 | 5.2 | 0.00 | 0.72 | 0.72 | 79 | 1009.6 |
| 20260506140838 | 65 | 214 | 4.3 | 6.1 | 0.00 | 0.72 | 0.72 | 82 | 1009.6 |
| 20260506135935 | 66 | 349 | 0.9 | 4.3 | 0.00 | 0.72 | 0.72 | 80 | 1009.7 |
| 20260506135336 | 66 | 171 | 5.2 | 10.4 | 0.00 | 0.72 | 0.72 | 79 | 1009.7 |